H1 CPF  2 CNE 2023  8 14  0 226 01 swot            NONE
H2  2217301 4381    54754 2023   8 14  0  0  0 2023   8 18  0  0  0  180 1 1   0 0 0  1
H9
10 0 60172  64800.000000  0      -1371464.716       4957934.150      -5148812.248
10 0 60172  64980.000000  0      -1899550.387       5653293.369      -4170968.443
10 0 60172  65160.000000  0      -2348581.741       6173706.208      -3053544.660
10 0 60172  65340.000000  0      -2708403.216       6499425.875      -1833809.155
10 0 60172  65520.000000  0      -2972240.383       6616952.178       -552562.770
10 0 60172  65700.000000  0      -3136778.181       6519618.415        747232.113
10 0 60172  65880.000000  0      -3202111.257       6207942.144       2021921.711
10 0 60172  66060.000000  0      -3171562.988       5689706.969       3228672.021
10 0 60172  66240.000000  0      -3051386.385       4979770.383       4326945.745
10 0 60172  66420.000000  0      -2850368.070       4099613.474       5279886.504
10 0 60172  66600.000000  0      -2579357.612       3076654.108       6055562.416
10 0 60172  66780.000000  0      -2250747.738       1943351.623       6628025.999
10 0 60172  66960.000000  0      -1877931.401        736141.955       6978157.908
10 0 60172  67140.000000  0      -1474761.883       -505755.650       7094277.289
10 0 60172  67320.000000  0      -1055037.761      -1741623.054       6972510.704
10 0 60172  67500.000000  0       -632028.860      -2930582.681       6616914.733
10 0 60172  67680.000000  0       -218056.376      -4032956.483       6039349.307
10 0 60172  67860.000000  0        175860.781      -5011603.265       5259101.192
10 0 60172  68040.000000  0        540284.976      -5833194.386       4302269.208
10 0 60172  68220.000000  0        867559.370      -6469390.795       3200916.724
10 0 60172  68400.000000  0       1151924.633      -6897869.040       1992006.709
10 0 60172  68580.000000  0       1389551.930      -7103148.888        716153.866
10 0 60172  68760.000000  0       1578493.594      -7077185.758       -583763.917
10 0 60172  68940.000000  0       1718555.225      -6819695.360      -1864086.316
10 0 60172  69120.000000  0       1811099.350      -6338187.595      -3081878.108
10 0 60172  69300.000000  0       1858794.794      -5647714.477      -4196398.275
10 0 60172  69480.000000  0       1865328.428      -4770346.316      -5170472.960
10 0 60172  69660.000000  0       1835097.064      -3734407.506      -5971721.353
10 0 60172  69840.000000  0       1772898.038      -2573509.893      -6573595.778
10 0 60172  70020.000000  0       1683634.949      -1325429.523      -6956212.512
10 0 60172  70200.000000  0       1572054.858        -30863.810      -7106961.451
10 0 60172  70380.000000  0       1442528.591       1267889.267      -7020881.125
10 0 60172  70560.000000  0       1298884.313       2528290.117      -6700805.679
10 0 60172  70740.000000  0       1144299.807       3708929.501      -6157282.896
10 0 60172  70920.000000  0        981252.962       4770878.692      -5408258.793
10 0 60172  71100.000000  0        811530.615       5678980.577      -4478532.526
10 0 60172  71280.000000  0        636291.995       6403045.061      -3398985.040
10 0 60172  71460.000000  0        456179.475       6918902.023      -2205591.893
10 0 60172  71640.000000  0        271468.381       7209266.917       -938243.827
10 0 60172  71820.000000  0         82246.658       7264375.492        360590.179
10 0 60172  72000.000000  0       -111386.942       7082354.275       1647308.749
10 0 60172  72180.000000  0       -309121.563       6669305.314       2878679.073
10 0 60172  72360.000000  0       -510245.241       6039093.827       4013328.866
10 0 60172  72540.000000  0       -713478.252       5212853.483       5013165.984
10 0 60172  72720.000000  0       -916838.777       4218229.352       5844673.773
10 0 60172  72900.000000  0      -1117549.514       3088399.746       6480025.039
10 0 60172  73080.000000  0      -1311997.617       1860927.192       6897992.246
10 0 60172  73260.000000  0      -1495752.294        576478.562       7084629.398
10 0 60172  73440.000000  0      -1663643.676       -722538.913       7033714.119
10 0 60172  73620.000000  0      -1809903.629      -1993385.269       6746942.960
10 0 60172  73800.000000  0      -1928364.545      -3194398.175       6233877.308
10 0 60172  73980.000000  0      -2012709.793      -4286368.507       5511643.552
10 0 60172  74160.000000  0      -2056769.310      -5233841.710       4604387.409
10 0 60172  74340.000000  0      -2054848.405      -6006303.235       3542494.050
10 0 60172  74520.000000  0      -2002070.011      -6579208.696       2361585.501
10 0 60172  74700.000000  0      -1894711.986      -6934809.978       1101323.353
10 0 60172  74880.000000  0      -1730522.152      -7062743.163       -195942.832
10 0 60172  75060.000000  0      -1508989.713      -6960347.783      -1486634.241
10 0 60172  75240.000000  0      -1231556.110      -6632699.425      -2727447.269
10 0 60172  75420.000000  0       -901753.425      -6092357.241      -3876839.722
10 0 60172  75600.000000  0       -525261.676      -5358842.542      -4896438.852
10 0 60172  75780.000000  0       -109879.177      -4457879.227      -5752315.491
10 0 60172  75960.000000  0        334594.541      -3420439.815      -6416083.051
10 0 60172  76140.000000  0        796561.002      -2281640.839      -6865793.587
10 0 60172  76320.000000  0       1262904.982      -1079534.394      -7086612.952
10 0 60172  76500.000000  0       1719352.708        146163.735      -7071269.102
10 0 60172  76680.000000  0       2150897.965       1355371.029      -6820266.004
10 0 60172  76860.000000  0       2542287.773       2508925.805      -6341870.217
10 0 60172  77040.000000  0       2878557.054       3569840.333      -5651865.245
10 0 60172  77220.000000  0       3145593.815       4504485.260      -4773075.110
10 0 60172  77400.000000  0       3330718.461       5283674.490      -3734660.649
10 0 60172  77580.000000  0       3423252.351       5883613.149      -2571194.684
10 0 60172  77760.000000  0       3415048.701       6286669.841      -1321536.712
10 0 60172  77940.000000  0       3300957.348       6481939.817        -27538.177
10 0 60172  78120.000000  0       3079194.495       6465568.349       1267379.491
10 0 60172  78300.000000  0       2751595.449       6240814.628       2519715.484
10 0 60172  78480.000000  0       2323735.347       5817855.079       3687388.424
10 0 60172  78660.000000  0       1804909.105       5213336.301       4731183.682
10 0 60172  78840.000000  0       1207965.614       4449698.836       5616092.729
10 0 60172  79020.000000  0        549001.725       3554304.062       6312487.317
10 0 60172  79200.000000  0       -153069.940       2558417.302       6797091.082
10 0 60172  79380.000000  0       -877064.794       1496087.019       7053730.829
10 0 60172  79560.000000  0      -1600166.433        402962.439       7073850.176
10 0 60172  79740.000000  0      -2298646.779       -684911.074       6856778.867
10 0 60172  79920.000000  0      -2948647.055      -1732285.066       6409753.279
10 0 60172  80100.000000  0      -3526996.436      -2705853.492       5747688.978
10 0 60172  80280.000000  0      -4012048.757      -3575323.242       4892711.247
10 0 60172  80460.000000  0      -4384506.073      -4314378.931       3873440.455
10 0 60172  80640.000000  0      -4628193.866      -4901503.932       2724051.767
10 0 60172  80820.000000  0      -4730756.649      -5320633.129       1483135.167
10 0 60172  81000.000000  0      -4684238.361      -5561608.822        192384.945
10 0 60172  81180.000000  0      -4485514.932      -5620416.709      -1104831.968
10 0 60172  81360.000000  0      -4136555.190      -5499192.857      -2364973.105
10 0 60172  81540.000000  0      -3644492.922      -5206000.939      -3545820.055
10 0 60172  81720.000000  0      -3021506.675      -4754396.102      -4607915.356
10 0 60172  81900.000000  0      -2284513.955      -4162804.256      -5515880.834
10 0 60172  82080.000000  0      -1454696.151      -3453752.249      -6239572.266
10 0 60172  82260.000000  0       -556874.734      -2652988.153      -6755039.315
10 0 60172  82440.000000  0        381238.982      -1788529.541      -7045267.561
10 0 60172  82620.000000  0       1329893.578       -889680.427      -7100692.969
10 0 60172  82800.000000  0       2258227.446         13954.011      -6919488.703
10 0 60172  82980.000000  0       3135256.384        893427.091      -6507619.058
10 0 60172  83160.000000  0       3930896.411       1721362.209      -5878663.688
10 0 60172  83340.000000  0       4616993.120       2472796.690      -5053409.001
10 0 60172  83520.000000  0       5168329.445       3125934.794      -4059211.962
10 0 60172  83700.000000  0       5563576.342       3662789.365      -2929139.976
10 0 60172  83880.000000  0       5786144.876       4069690.680      -1700903.689
10 0 60172  84060.000000  0       5824899.001       4337640.463       -415607.385
10 0 60172  84240.000000  0       5674688.886       4462492.750        883639.640
10 0 60172  84420.000000  0       5336675.693       4444956.293       2153198.184
10 0 60172  84600.000000  0       4818426.854       4290417.598       3350403.682
10 0 60172  84780.000000  0       4133771.396       4008593.751       4435038.338
10 0 60172  84960.000000  0       3302420.544       3613035.010       5370706.155
10 0 60172  85140.000000  0       2349373.067       3120506.147       6126061.443
10 0 60172  85320.000000  0       1304130.120       2550277.090       6675844.216
10 0 60172  85500.000000  0        199757.575       1923362.003       7001699.511
10 0 60172  85680.000000  0       -928177.425       1261735.326       7092762.238
10 0 60172  85860.000000  0      -2042758.679        587555.751       6945998.113
10 0 60172  86040.000000  0      -3106931.955        -77578.730       6566299.336
10 0 60172  86220.000000  0      -4084741.661       -713324.520       5966331.780
99